Regional Weather Roundup
Issued by NWS

Home | Current Version | Previous Version | Graphics & Text | Print | Product List | Glossary On
Versions: 1 2 3 4 5 6 7 8 9 10 11 12 13 14 15 16 17 18 19 20 21 22 23 24 25 26 27 28 29 30 31 32 33 34 35 36 37 38 39 40 41 42 43 44 45 46 47 48 49 50
000
ASUS43 KDMX 231306
RWRIA

WEATHER ROUNDUP FOR IOWA
NATIONAL WEATHER SERVICE DES MOINES IA
800 AM CDT MON APR 23 2018

NOTE: "FAIR" INDICATES FEW OR NO CLOUDS BELOW 12,000 FEET WITH NO
SIGNIFICANT WEATHER AND/OR OBSTRUCTIONS TO VISIBILITY.

* - THESE STATIONS ARE NOT NWS STATIONS...THUS NOT UNDER NWS
QUALITY CONTROL.  THEY ALSO DO NOT REPORT WEATHER SUCH
AS PRECIPITATION OR FOG.

IAZ001>003-012>014-020>022-031>034-043>046-231400-
   NORTHWEST IOWA

CITY           SKY/WX    TMP DP  RH WIND       PRES   REMARKS
CARROLL *      CLOUDY    43  37  81 CALM      30.22S
CHEROKEE *     SUNNY     38  38 100 N3        30.24R
DENISON *      SUNNY     43  36  75 NE7       30.23S
LE MARS *      SUNNY     39  37  93 CALM      30.22R
ORANGE CITY *  SUNNY     43  39  87 E5        30.22R
SHELDON *      SUNNY     41  39  93 SE6       30.21R
SIOUX CITY     SUNNY     40  38  93 CALM      30.22R
SPENCER        SUNNY     41  36  82 CALM      30.24R
STORM LAKE *   CLOUDY    46  39  76 E5        30.22S
$$

IAZ055>058-069>071-079>083-090>094-231400-
   SOUTHWEST IOWA

CITY           SKY/WX    TMP DP  RH WIND       PRES   REMARKS
ATLANTIC *     SUNNY     37  32  81 N5        30.21R WCI  34
AUDUBON *      SUNNY     43  36  75 CALM      30.22S
CLARINDA *     CLOUDY    43  32  65 NE7       30.20S
COUNCIL BLFS * SUNNY     45  32  61 N5        30.20R
CRESTON *      SUNNY     46  32  57 NE10      30.20R
HARLAN  *      SUNNY     41  34  75 N8        30.24S
LAMONI         CLOUDY    50  32  50 NE10      30.16S
RED OAK *      SUNNY     45  32  61 MISG      30.19S
SHENANDOAH *   SUNNY     43  32  65 NE3       30.19S
$$

IAZ047>049-059>061-072>074-084-231400-
   CENTRAL IOWA

CITY           SKY/WX    TMP DP  RH WIND       PRES   REMARKS
AMES           CLOUDY    48  34  58 NE6       30.23R
ANKENY *       MOSUNNY   45  34  65 N8        30.23R
BOONE *        CLOUDY    43  34  70 NE6       30.22R
CHARITON *     CLOUDY    48  32  53 NE7       30.18S
DES MOINES     CLOUDY    50  30  46 NE8       30.21R
GRINNELL*      CLOUDY    48  32  54 NE9       30.22S
KNOXVILLE *    CLOUDY    50  28  43 E7        30.18F
MARSHALLTOWN   CLOUDY    44  35  70 NE3       30.22R
NEWTON *       CLOUDY    48  32  53 NE9       30.21S
PELLA *        CLOUDY    49  30  48 NE3       30.21S
PERRY *        FAIR      41  31  68 N3        30.22S
$$

IAZ004>006-015-016-023>025-035-036-231400-
   NORTH CENTRAL IOWA

CITY           SKY/WX    TMP DP  RH WIND       PRES   REMARKS
ALGONA *       SUNNY     41  37  87 CALM      30.24S
CLARION *      SUNNY     46  36  66 E8        30.24R
ESTHERVILLE    SUNNY     34  33  96 CALM      30.24R
FORT DODGE *   SUNNY     45  39  79 NE5       30.24R
MASON CITY     SUNNY     41  33  73 CALM      30.26S
WEBSTER CITY * SUNNY     46  36  66 NE7       30.22R
IOWA FALLS *   FAIR      46  35  63 NE5       30.25R
$$

IAZ007>011-017>019-026>030-037>042-050>054-066-231400-
   NORTHEAST IOWA

CITY           SKY/WX    TMP DP  RH WIND       PRES   REMARKS
CEDAR RAPIDS   FAIR      50  28  42 E12       30.21S
CHARLES CITY * PTSUNNY   43  32  65 NE7       30.26R
CLINTON *      FAIR      46  29  51 NE14      30.22S
DECORAH *      FAIR      41  36  81 CALM      30.25S
DUBUQUE        FAIR      44  27  51 NE12      30.24S
MONTICELLO *   FAIR      48  28  46 NE6       30.23S
OELWEIN *      FAIR      46  32  57 E9        30.24F
WATERLOO       FAIR      46  34  62 E7        30.24R
$$

IAZ064-065-067-068-078-231400-
   EAST CENTRAL IOWA

CITY           SKY/WX    TMP DP  RH WIND       PRES   REMARKS
DAVENPORT      FAIR      46  28  49 NE12      30.22S
IOWA CITY      FAIR      52  28  39 NE10      30.22S
MT. PLEASANT * CLOUDY    46  30  53 NE12      30.18R
MUSCATINE *    FAIR      48  28  46 NE12      30.20F
QUAD CITIES    FAIR      50  28  42 E9        30.19S
$$

IAZ062-063-075>077-085>089-095>099-231400-
   SOUTHEAST IOWA

CITY           SKY/WX    TMP DP  RH WIND       PRES   REMARKS
BURLINGTON     CLOUDY    48  29  47 NE15      30.15S
FAIRFIELD *    CLOUDY    48  28  46 NE14      30.18S
FORT MADISON * CLOUDY    48  30  49 NE10      30.15S
KEOKUK *       MOSUNNY   48  30  49 NE9       30.13S
OSKALOOSA *    FAIR      48  29  47 NE13      30.19S
CENTERVILLE *    N/A     48  32  53 N9        30.18S
OTTUMWA        CLOUDY    49  29  46 NE13      30.18S
WASHINGTON *   CLOUDY    48  30  49 NE10      30.20S
$$

ABBREVIATIONS USED IN REMARKS
   TC - TEMPERATURES IN CELSIUS
  WCI - WIND CHILL INDEX
   HX - HEAT INDEX
  VSB - VISIBILITY
$$





USA.gov is the U.S. government's official web portal to all federal, state and local government web resources and services.